INMARSAT 3-F5
1 25153U 98006B   03064.83099755  .00000135  00000-0  10000-3 0  8530
2 25153   0.4578 353.8307 0004423 227.6819 265.8219  1.00270482 18656
HOT BIRD 4
1 25237U 98013A   03055.98151369  .00000074  00000-0  10000-3 0  3309
2 25237   0.0547 293.1775 0007524 338.0934 249.5459  1.00273950 18609
NOAA 15
1 25338U 98030A   03066.59933102  .00000202  00000-0  10624-3 0   315
2 25338  98.5491  88.2874 0009605 269.1601  90.8478 14.24251941250221
RESURS O1-N4
1 25394U 98043A   03066.50082103  .00000154  00000-0  86106-4 0  4643
2 25394  98.6295 144.1142 0002370  66.7147 293.4282 14.23883406241943
TMSAT
1 25396U 98043C   03064.92899752 -.00000043 +00000-0 +00000-0 0 08316
2 25396 098.6237 141.7299 0003703 092.2338 267.9267 14.23515350241718
TECHSAT 1B
1 25397U 98043D   03064.95678976 +.00000053 +00000-0 +42790-4 0 01817
2 25397 098.6197 140.6211 0002154 094.8506 265.2918 14.22962751241680
ASTRA 2A
1 25462U 98050A   03064.00000000  .00000141  00000-0  00000+0 0  5366
2 25462   0.0385 308.7109 0004824 280.8620 320.9573  1.00272094 16583
EUTELSAT W2
1 25491U 98056A   03065.98472802  .00000102  00000-0  00000+0 0  5856
2 25491   0.0087 231.6351 0003538 114.2061 188.9050  1.00273114 16213
HOT BIRD 5
1 25495U 98057A   03063.86782987  .00000123  00000-0  00000+0 0  5037
2 25495   0.0348 115.8222 0002188 119.7671 265.0383  1.00131550 16161
SEDSAT 1
1 25509U 98061B   03066.15748924  .00000618  00000-0  11419-3 0  7958
2 25509  31.4296  59.4814 0357070  87.7174 276.4274 14.27453048227680
PAN SAT
1 25520U 98064B   03065.51255108  .00003242  00000-0  16387-3 0  6459
2 25520  28.4585 117.6462 0006003 163.6528 196.4292 15.13960137240000
ISS (ZARYA)
1 25544U 98067A   03066.52569444  .00027780  00000-0  34987-3 0  7552
2 25544  51.6361 170.8433 0012108 287.9119 254.0011 15.59328931245144
ORSTED
1 25635U 99008B   03066.49507884  .00001007  00000-0  26342-3 0  8488
2 25635  96.4524  48.6802 0143682 275.7049  82.7781 14.44872656212385
SUNSAT
1 25636U 99008C   03064.97273720 +.00000410 +00000-0 +11599-3 0 07270
2 25636 096.4556 046.1468 0147837 287.2192 071.2867 14.42969231212039
UOSAT 12
1 25693U 99021A   03066.48413100  .00000839  00000-0  13978-3 0  7654
2 25693  64.5609 319.0139 0021757 314.8544  45.0791 14.76410375208750
FENGYUN 1C
1 25730U 99025A   03065.88334892  .00000104  00000-0  79948-4 0  7816
2 25730  98.6330  89.6717 0013821 319.2949  40.7189 14.11736560196939
ASTRA 1H
1 25785U 99033A   03064.00000000  .00000111  00000-0  10000-3 0  3748
2 25785   0.0122 319.8851 0002995  65.1991 156.4596  1.00273184 13641
TERRA
1 25994U 99068A   03066.27380572 -.00036685  00000-0 -81858-2 0  7596
2 25994  98.1938 142.2345 0000768  56.6671 303.3790 14.57072292171106
JAWSAT
1 26061U 00004A   03066.21039560  .00000548  00000-0  20021-3 0  7814
2 26061 100.2024 126.3622 0034856 232.1255 127.6774 14.37842720162926
OPAL
1 26063U 00004C   03065.72585034  .00000137  00000-0  67581-4 0  7359
2 26063 100.2064 123.2313 0036684 241.3879 118.3608 14.35487186162708
ASUSAT
1 26065U 00004E   03065.89150479  .00000166  00000-0  77869-4 0  7497
2 26065 100.2092 123.5842 0036942 241.6405 118.1047 14.35515489162721
GOES 11
1 26352U 00022A   03066.37437532 -.00000032  00000-0  10000-3 0   543
2 26352   0.1822 101.9592 0003089 211.6001 232.1327  1.00267056 10403
EUTELSAT W4
1 26369U 00028A   03063.85881946  .00000146  00000-0  00000+0 0  3575
2 26369   0.0441 354.3791 0002955 349.2827 163.7550  1.00272136 10195
FENGYUN 2B
1 26382U 00032A   03065.23994156 -.00000333  00000-0  00000+0 0  8065
2 26382   0.5377 289.7498 0001675 203.4197 221.1876  1.00268389  9864
EUTELSAT W1
1 26487U 00052A   03065.89376720  .00000066  00000-0  10000-3 0  3664
2 26487   0.0274 285.7402 0003825  55.4199 154.7436  1.00274466  9189
ASTRA 2B
1 26494U 00054A   03064.00000000  .00000141  00000-0  00000+0 0  2579
2 26494   0.0178 354.5658 0005000 302.8402 253.0807  1.00276704  9060
NOAA 16
1 26536U 00055A   03066.37699345  .00000050  00000-0  51444-4 0  2364
2 26536  98.9063  14.5394 0009729 258.8073 101.2018 14.11913455126528
SAUDISAT 1A
1 26545U 00057A   03064.89480748 +.00001393 +00000-0 +20322-3 0 04213
2 26545 064.5615 344.8182 0051148 236.1858 123.4373 14.79019562131498
UNISAT
1 26547U 00057C   03066.02199659  .00002741  00000-0  37161-3 0  4408
2 26547  64.5600 343.5222 0058236 237.9216 121.6236 14.79818089131621
TIUNGSAT 1
1 26548U 00057D   03066.24380021  .00002332  00000-0  31131-3 0  4247
2 26548  64.5598 333.3755 0044265 235.4169 124.2769 14.81328558131836
SAUDISAT 1B
1 26549U 00057E   03065.88921692  .00001307  00000-0  19603-3 0  7099
2 26549  64.5509 345.9564 0055533 235.9726 123.6106 14.77957191131553
AMSAT OSCAR 40
1 26609U 00072B   03066.11783278 -.00000244  00000-0  10000-3 0  3140
2 26609   8.2200  61.4070 7949170 150.5515 300.1580  1.25596136 10796
GOES 12
1 26871U 01031A   03063.17432264 -.00000202  00000-0  10000-3 0  8527
2 26871   0.2930 276.3055 0002177  31.1799 186.6507  1.00358663  5971
PCSAT
1 26931U 01043C   03066.53131737  .00000234  00000-0  12484-3 0  4181
2 26931  67.0463 211.9428 0005194 270.1017  89.9485 14.29123948 74774
SAPPHIRE
1 26932U 01043D   03066.57723517  .00000102  00000-0  72595-4 0  4138
2 26932  67.0527 211.5251 0004352 247.4942 112.5698 14.29300118 74804
ENVISAT
1 27386U 02009A   03065.89237530 -.00000281  00000-0 -88168-4 0  9671
2 27386  98.5514 134.2080 0000989  68.0967 292.0318 14.32245914 53086
IDEFIX/ARIANE 42P
1 27422U 02021B   03066.55915353  .00000238  00000-0  11374-3 0  2493
2 27422  98.6933 145.6801 0013400  99.2794 260.9903 14.27978041 43885
FENGYUN 1D
1 27431U 02024B   03066.56431973 -.00000176  00000-0 -76626-4 0  2314
2 27431  98.7644 115.0868 0016305  75.6333 284.6646 14.09177798 41765
NOAA 17
1 27453U 02032A   03066.57796309  .00000288  00000-0  14652-3 0  3295
2 27453  98.7541 137.6979 0011250 311.3523  48.6687 14.23303192 36383
HOT BIRD 6
1 27499U 02038A   03054.87288413  .00000075  00000-0  10000-3 0   703
2 27499   0.0150 173.7812 0009015 197.5701 109.1063  1.00270140  1885
RUBIN 2
1 27605U 02058A   03065.34835316  .00000676  00000-0  12953-3 0   759
2 27605  64.5522 149.3219 0035588 107.0096 253.4909 14.71394614 11135
